This is the latest recevied weather packets stored in our database for station/object KI6PPU. If no packets are shown the sender has not sent any weather packets the latest 1 day(s).
| Time | Temp. | Humidity | Pressure | Rain* | Wind** | Luminosity | Snow |
|---|---|---|---|---|---|---|---|
| 1778000675 | 12.78° C | 87% | 1017.7 hPa | 0 mm | 0 m/s | 295 W/m² | - |
| 1778000370 | 12.78° C | 87% | 1017.7 hPa | 0 mm | 0.89 m/s, 48° | 202 W/m² | - |
| 1778000066 | 12.22° C | 88% | 1017.6 hPa | 0 mm | 1.34 m/s, 96° | 192 W/m² | - |
| 1777999762 | 12.22° C | 90% | 1017.6 hPa | 0 mm | 1.34 m/s, 127° | 224 W/m² | - |
| 1777999459 | 12.22° C | 90% | 1017.5 hPa | 0 mm | 1.34 m/s, 72° | 258 W/m² | - |
| 1777999157 | 11.67° C | 93% | 1017.6 hPa | 0 mm | 1.34 m/s, 115° | 274 W/m² | - |
| 1777998856 | 11.67° C | 95% | 1017.6 hPa | 0 mm | 1.79 m/s, 143° | 223 W/m² | - |
| 1777998554 | 11.11° C | 97% | 1017.4 hPa | 0 mm | 1.34 m/s, 144° | 177 W/m² | - |
| 1777998249 | 10.56° C | 97% | 1017.4 hPa | 0 mm | 0 m/s | 187 W/m² | - |
| 1777997947 | 10.56° C | 98% | 1017.6 hPa | 0 mm | 0.89 m/s, 132° | 215 W/m² | - |
| 1777997644 | 10.56° C | 98% | 1017.7 hPa | 0 mm | 0.89 m/s, 148° | 180 W/m² | - |
| 1777997341 | 10.56° C | 98% | 1017.4 hPa | 0 mm | 0.89 m/s, 139° | 171 W/m² | - |
| 1777997039 | 10.56° C | 98% | 1017.5 hPa | 0 mm | 1.34 m/s, 90° | 144 W/m² | - |
| 1777996735 | 10.56° C | 98% | 1017.5 hPa | 0 mm | 0 m/s | 114 W/m² | - |
| 1777996431 | 10° C | 98% | 1017.6 hPa | 0 mm | 0 m/s | 111 W/m² | - |
| 1777996128 | 10.56° C | 99% | 1017.5 hPa | 0 mm | 0.45 m/s, 151° | 95 W/m² | - |
| 1777995824 | 10.56° C | 99% | 1017.4 hPa | 0 mm | 0.45 m/s, 185° | 83 W/m² | - |
| 1777995520 | 10.56° C | 99% | 1017.4 hPa | 0 mm | 0.89 m/s, 110° | 76 W/m² | - |
| 1777995218 | 10.56° C | 99% | 1017.4 hPa | 0 mm | 0.45 m/s, 54° | 76 W/m² | - |
| 1777994914 | 10.56° C | 99% | 1017.4 hPa | 0 mm | 0 m/s | 73 W/m² | - |
| 1777994611 | 10.56° C | 99% | 1017.3 hPa | 0 mm | 0.45 m/s, 154° | 82 W/m² | - |
| 1777994306 | 11.11° C | 99% | 1017.2 hPa | 0 mm | 0.89 m/s, 184° | 70 W/m² | - |
| 1777994003 | 10.56° C | 99% | 1017.3 hPa | 0 mm | 0 m/s | 50 W/m² | - |
| 1777993699 | 10.56° C | 99% | 1017.1 hPa | 0 mm | 0 m/s | 53 W/m² | - |
| 1777993397 | 10.56° C | 99% | 1017.2 hPa | 0 mm | 0 m/s | 59 W/m² | - |
* Rain latest hour (hover to see other rain measurements)
** Current wind speed in m/s (hover to see current wind gust speed)